Date_Time,Julian_Date,Latitude,Longitude,Instrument_Depth,Water_Pressure
(yyyy-mm-dd hh:mn:ss UTC),(JD),(+ deg. North),(+ deg. East),(m),(dB)
1979-02-13 23:59:00 UTC,2443918.499306,27.6633,-85.5217,0254,253.6000
1979-02-14 00:59:00 UTC,2443918.540972,27.6633,-85.5217,0254,253.6000
1979-02-14 01:59:00 UTC,2443918.582639,27.6633,-85.5217,0254,253.5000
1979-02-14 02:59:00 UTC,2443918.624306,27.6633,-85.5217,0254,253.5000
1979-02-14 03:59:00 UTC,2443918.665972,27.6633,-85.5217,0254,253.5000
1979-02-14 04:59:00 UTC,2443918.707639,27.6633,-85.5217,0254,253.5000
1979-02-14 05:59:00 UTC,2443918.749306,27.6633,-85.5217,0254,253.5000
1979-02-14 06:59:00 UTC,2443918.790972,27.6633,-85.5217,0254,253.5000
1979-02-14 07:59:00 UTC,2443918.832639,27.6633,-85.5217,0254,253.5000
1979-02-14 08:59:00 UTC,2443918.874306,27.6633,-85.5217,0254,253.5000
1979-02-14 09:59:00 UTC,2443918.915972,27.6633,-85.5217,0254,253.5000
1979-02-14 10:59:00 UTC,2443918.957639,27.6633,-85.5217,0254,253.5000
1979-02-14 11:59:00 UTC,2443918.999306,27.6633,-85.5217,0254,253.5000
1979-02-14 12:59:00 UTC,2443919.040972,27.6633,-85.5217,0254,253.5000
1979-02-14 13:59:00 UTC,2443919.082639,27.6633,-85.5217,0254,253.5000
1979-02-14 14:59:00 UTC,2443919.124306,27.6633,-85.5217,0254,253.5000
1979-02-14 15:59:00 UTC,2443919.165972,27.6633,-85.5217,0254,253.5000
1979-02-14 16:59:00 UTC,2443919.207639,27.6633,-85.5217,0254,253.5000
1979-02-14 17:59:00 UTC,2443919.249306,27.6633,-85.5217,0254,253.5000
1979-02-14 18:59:00 UTC,2443919.290972,27.6633,-85.5217,0254,253.5000
1979-02-14 19:59:00 UTC,2443919.332639,27.6633,-85.5217,0254,253.5000
1979-02-14 20:59:00 UTC,2443919.374306,27.6633,-85.5217,0254,253.5000
1979-02-14 21:59:00 UTC,2443919.415972,27.6633,-85.5217,0254,253.5000
1979-02-14 22:59:00 UTC,2443919.457639,27.6633,-85.5217,0254,253.5000
1979-02-14 23:59:00 UTC,2443919.499306,27.6633,-85.5217,0254,253.5000
1979-02-15 00:59:00 UTC,2443919.540972,27.6633,-85.5217,0254,253.5000
1979-02-15 01:59:00 UTC,2443919.582639,27.6633,-85.5217,0254,253.5000
1979-02-15 02:59:00 UTC,2443919.624306,27.6633,-85.5217,0254,253.5000
1979-02-15 03:59:00 UTC,2443919.665972,27.6633,-85.5217,0254,253.5000
1979-02-15 04:59:00 UTC,2443919.707639,27.6633,-85.5217,0254,253.5000
1979-02-15 05:59:00 UTC,2443919.749306,27.6633,-85.5217,0254,253.5000
1979-02-15 06:59:00 UTC,2443919.790972,27.6633,-85.5217,0254,253.5000
1979-02-15 07:59:00 UTC,2443919.832639,27.6633,-85.5217,0254,253.5000
1979-02-15 08:59:00 UTC,2443919.874306,27.6633,-85.5217,0254,253.5000
1979-02-15 09:59:00 UTC,2443919.915972,27.6633,-85.5217,0254,253.5000
1979-02-15 10:59:00 UTC,2443919.957639,27.6633,-85.5217,0254,253.5000
1979-02-15 11:59:00 UTC,2443919.999306,27.6633,-85.5217,0254,253.5000
1979-02-15 12:59:00 UTC,2443920.040972,27.6633,-85.5217,0254,253.5000
1979-02-15 13:59:00 UTC,2443920.082639,27.6633,-85.5217,0254,253.6000
1979-02-15 14:59:00 UTC,2443920.124306,27.6633,-85.5217,0254,253.4000
1979-02-15 15:59:00 UTC,2443920.165972,27.6633,-85.5217,0254,253.9000
1979-02-15 16:59:00 UTC,2443920.207639,27.6633,-85.5217,0254,255.5000
1979-02-15 17:59:00 UTC,2443920.249306,27.6633,-85.5217,0254,255.9000
1979-02-15 18:59:00 UTC,2443920.290972,27.6633,-85.5217,0254,255.7000
1979-02-15 19:59:00 UTC,2443920.332639,27.6633,-85.5217,0254,255.8000
1979-02-15 20:59:00 UTC,2443920.374306,27.6633,-85.5217,0254,255.8000
1979-02-15 21:59:00 UTC,2443920.415972,27.6633,-85.5217,0254,255.8000
1979-02-15 22:59:00 UTC,2443920.457639,27.6633,-85.5217,0254,255.8000
1979-02-15 23:59:00 UTC,2443920.499306,27.6633,-85.5217,0254,255.7000
1979-02-16 00:59:00 UTC,2443920.540972,27.6633,-85.5217,0254,255.9000
1979-02-16 01:59:00 UTC,2443920.582639,27.6633,-85.5217,0254,255.5000
1979-02-16 02:59:00 UTC,2443920.624306,27.6633,-85.5217,0254,253.8000
1979-02-16 03:59:00 UTC,2443920.665972,27.6633,-85.5217,0254,253.4000
1979-02-16 04:59:00 UTC,2443920.707639,27.6633,-85.5217,0254,253.6000
1979-02-16 05:59:00 UTC,2443920.749306,27.6633,-85.5217,0254,253.5000
1979-02-16 06:59:00 UTC,2443920.790972,27.6633,-85.5217,0254,253.5000
1979-02-16 07:59:00 UTC,2443920.832639,27.6633,-85.5217,0254,253.6000
1979-02-16 08:59:00 UTC,2443920.874306,27.6633,-85.5217,0254,253.5000
1979-02-16 09:59:00 UTC,2443920.915972,27.6633,-85.5217,0254,253.5000
1979-02-16 10:59:00 UTC,2443920.957639,27.6633,-85.5217,0254,255.0000
1979-02-16 11:59:00 UTC,2443920.999306,27.6633,-85.5217,0254,256.0000
1979-02-16 12:59:00 UTC,2443921.040972,27.6633,-85.5217,0254,255.8000
1979-02-16 13:59:00 UTC,2443921.082639,27.6633,-85.5217,0254,255.8000
1979-02-16 14:59:00 UTC,2443921.124306,27.6633,-85.5217,0254,255.8000
1979-02-16 15:59:00 UTC,2443921.165972,27.6633,-85.5217,0254,255.8000
1979-02-16 16:59:00 UTC,2443921.207639,27.6633,-85.5217,0254,255.8000
1979-02-16 17:59:00 UTC,2443921.249306,27.6633,-85.5217,0254,255.8000
1979-02-16 18:59:00 UTC,2443921.290972,27.6633,-85.5217,0254,255.8000
1979-02-16 19:59:00 UTC,2443921.332639,27.6633,-85.5217,0254,255.8000
1979-02-16 20:59:00 UTC,2443921.374306,27.6633,-85.5217,0254,255.8000
1979-02-16 21:59:00 UTC,2443921.415972,27.6633,-85.5217,0254,255.8000
1979-02-16 22:59:00 UTC,2443921.457639,27.6633,-85.5217,0254,255.8000
1979-02-16 23:59:00 UTC,2443921.499306,27.6633,-85.5217,0254,255.8000
1979-02-17 00:59:00 UTC,2443921.540972,27.6633,-85.5217,0254,255.8000
1979-02-17 01:59:00 UTC,2443921.582639,27.6633,-85.5217,0254,255.8000
1979-02-17 02:59:00 UTC,2443921.624306,27.6633,-85.5217,0254,255.8000
1979-02-17 03:59:00 UTC,2443921.665972,27.6633,-85.5217,0254,255.8000
1979-02-17 04:59:00 UTC,2443921.707639,27.6633,-85.5217,0254,255.8000
1979-02-17 05:59:00 UTC,2443921.749306,27.6633,-85.5217,0254,255.8000
1979-02-17 06:59:00 UTC,2443921.790972,27.6633,-85.5217,0254,255.8000
1979-02-17 07:59:00 UTC,2443921.832639,27.6633,-85.5217,0254,255.8000
1979-02-17 08:59:00 UTC,2443921.874306,27.6633,-85.5217,0254,255.7000
1979-02-17 09:59:00 UTC,2443921.915972,27.6633,-85.5217,0254,256.0000
1979-02-17 10:59:00 UTC,2443921.957639,27.6633,-85.5217,0254,255.3000
1979-02-17 11:59:00 UTC,2443921.999306,27.6633,-85.5217,0254,254.7000
1979-02-17 12:59:00 UTC,2443922.040972,27.6633,-85.5217,0254,255.7000
1979-02-17 13:59:00 UTC,2443922.082639,27.6633,-85.5217,0254,255.9000
1979-02-17 14:59:00 UTC,2443922.124306,27.6633,-85.5217,0254,255.7000
1979-02-17 15:59:00 UTC,2443922.165972,27.6633,-85.5217,0254,255.8000
1979-02-17 16:59:00 UTC,2443922.207639,27.6633,-85.5217,0254,255.8000
1979-02-17 17:59:00 UTC,2443922.249306,27.6633,-85.5217,0254,255.8000
1979-02-17 18:59:00 UTC,2443922.290972,27.6633,-85.5217,0254,255.8000
1979-02-17 19:59:00 UTC,2443922.332639,27.6633,-85.5217,0254,255.8000
1979-02-17 20:59:00 UTC,2443922.374306,27.6633,-85.5217,0254,255.8000
1979-02-17 21:59:00 UTC,2443922.415972,27.6633,-85.5217,0254,255.8000
1979-02-17 22:59:00 UTC,2443922.457639,27.6633,-85.5217,0254,255.8000
1979-02-17 23:59:00 UTC,2443922.499306,27.6633,-85.5217,0254,255.8000
1979-02-18 00:59:00 UTC,2443922.540972,27.6633,-85.5217,0254,255.8000
1979-02-18 01:59:00 UTC,2443922.582639,27.6633,-85.5217,0254,255.8000
1979-02-18 02:59:00 UTC,2443922.624306,27.6633,-85.5217,0254,255.8000
1979-02-18 03:59:00 UTC,2443922.665972,27.6633,-85.5217,0254,255.8000
1979-02-18 04:59:00 UTC,2443922.707639,27.6633,-85.5217,0254,255.8000
1979-02-18 05:59:00 UTC,2443922.749306,27.6633,-85.5217,0254,255.8000
1979-02-18 06:59:00 UTC,2443922.790972,27.6633,-85.5217,0254,255.8000
1979-02-18 07:59:00 UTC,2443922.832639,27.6633,-85.5217,0254,255.8000
1979-02-18 08:59:00 UTC,2443922.874306,27.6633,-85.5217,0254,255.8000
1979-02-18 09:59:00 UTC,2443922.915972,27.6633,-85.5217,0254,255.8000
1979-02-18 10:59:00 UTC,2443922.957639,27.6633,-85.5217,0254,255.8000
1979-02-18 11:59:00 UTC,2443922.999306,27.6633,-85.5217,0254,255.8000
1979-02-18 12:59:00 UTC,2443923.040972,27.6633,-85.5217,0254,255.8000
1979-02-18 13:59:00 UTC,2443923.082639,27.6633,-85.5217,0254,255.8000
1979-02-18 14:59:00 UTC,2443923.124306,27.6633,-85.5217,0254,255.8000
1979-02-18 15:59:00 UTC,2443923.165972,27.6633,-85.5217,0254,255.8000
1979-02-18 16:59:00 UTC,2443923.207639,27.6633,-85.5217,0254,255.7000
1979-02-18 17:59:00 UTC,2443923.249306,27.6633,-85.5217,0254,256.0000
1979-02-18 18:59:00 UTC,2443923.290972,27.6633,-85.5217,0254,255.4000
1979-02-18 19:59:00 UTC,2443923.332639,27.6633,-85.5217,0254,254.1000
1979-02-18 20:59:00 UTC,2443923.374306,27.6633,-85.5217,0254,255.4000
1979-02-18 21:59:00 UTC,2443923.415972,27.6633,-85.5217,0254,256.0000
1979-02-18 22:59:00 UTC,2443923.457639,27.6633,-85.5217,0254,255.7000
1979-02-18 23:59:00 UTC,2443923.499306,27.6633,-85.5217,0254,255.8000
1979-02-19 00:59:00 UTC,2443923.540972,27.6633,-85.5217,0254,255.8000
1979-02-19 01:59:00 UTC,2443923.582639,27.6633,-85.5217,0254,255.8000
1979-02-19 02:59:00 UTC,2443923.624306,27.6633,-85.5217,0254,255.8000
1979-02-19 03:59:00 UTC,2443923.665972,27.6633,-85.5217,0254,255.8000
1979-02-19 04:59:00 UTC,2443923.707639,27.6633,-85.5217,0254,255.8000
1979-02-19 05:59:00 UTC,2443923.749306,27.6633,-85.5217,0254,255.7000
1979-02-19 06:59:00 UTC,2443923.790972,27.6633,-85.5217,0254,255.9000
1979-02-19 07:59:00 UTC,2443923.832639,27.6633,-85.5217,0254,255.5000
1979-02-19 08:59:00 UTC,2443923.874306,27.6633,-85.5217,0254,253.8000
1979-02-19 09:59:00 UTC,2443923.915972,27.6633,-85.5217,0254,253.4000
1979-02-19 10:59:00 UTC,2443923.957639,27.6633,-85.5217,0254,253.6000
1979-02-19 11:59:00 UTC,2443923.999306,27.6633,-85.5217,0254,253.5000
1979-02-19 12:59:00 UTC,2443924.040972,27.6633,-85.5217,0254,253.5000
1979-02-19 13:59:00 UTC,2443924.082639,27.6633,-85.5217,0254,253.5000
1979-02-19 14:59:00 UTC,2443924.124306,27.6633,-85.5217,0254,253.5000
1979-02-19 15:59:00 UTC,2443924.165972,27.6633,-85.5217,0254,253.5000
1979-02-19 16:59:00 UTC,2443924.207639,27.6633,-85.5217,0254,253.5000
1979-02-19 17:59:00 UTC,2443924.249306,27.6633,-85.5217,0254,253.5000
1979-02-19 18:59:00 UTC,2443924.290972,27.6633,-85.5217,0254,253.5000
1979-02-19 19:59:00 UTC,2443924.332639,27.6633,-85.5217,0254,253.5000
1979-02-19 20:59:00 UTC,2443924.374306,27.6633,-85.5217,0254,253.5000
1979-02-19 21:59:00 UTC,2443924.415972,27.6633,-85.5217,0254,253.5000
1979-02-19 22:59:00 UTC,2443924.457639,27.6633,-85.5217,0254,253.5000
1979-02-19 23:59:00 UTC,2443924.499306,27.6633,-85.5217,0254,253.5000
1979-02-20 00:59:00 UTC,2443924.540972,27.6633,-85.5217,0254,253.5000
1979-02-20 01:59:00 UTC,2443924.582639,27.6633,-85.5217,0254,253.5000
1979-02-20 02:59:00 UTC,2443924.624306,27.6633,-85.5217,0254,253.5000
1979-02-20 03:59:00 UTC,2443924.665972,27.6633,-85.5217,0254,253.5000
1979-02-20 04:59:00 UTC,2443924.707639,27.6633,-85.5217,0254,253.5000
1979-02-20 05:59:00 UTC,2443924.749306,27.6633,-85.5217,0254,253.5000
1979-02-20 06:59:00 UTC,2443924.790972,27.6633,-85.5217,0254,253.5000
1979-02-20 07:59:00 UTC,2443924.832639,27.6633,-85.5217,0254,253.5000
1979-02-20 08:59:00 UTC,2443924.874306,27.6633,-85.5217,0254,253.5000
1979-02-20 09:59:00 UTC,2443924.915972,27.6633,-85.5217,0254,253.5000
1979-02-20 10:59:00 UTC,2443924.957639,27.6633,-85.5217,0254,253.5000
1979-02-20 11:59:00 UTC,2443924.999306,27.6633,-85.5217,0254,253.5000
1979-02-20 12:59:00 UTC,2443925.040972,27.6633,-85.5217,0254,253.5000
1979-02-20 13:59:00 UTC,2443925.082639,27.6633,-85.5217,0254,253.5000
1979-02-20 14:59:00 UTC,2443925.124306,27.6633,-85.5217,0254,253.6000
1979-02-20 15:59:00 UTC,2443925.165972,27.6633,-85.5217,0254,253.4000
1979-02-20 16:59:00 UTC,2443925.207639,27.6633,-85.5217,0254,254.4000
1979-02-20 17:59:00 UTC,2443925.249306,27.6633,-85.5217,0254,255.8000
1979-02-20 18:59:00 UTC,2443925.290972,27.6633,-85.5217,0254,255.8000
1979-02-20 19:59:00 UTC,2443925.332639,27.6633,-85.5217,0254,255.7000
1979-02-20 20:59:00 UTC,2443925.374306,27.6633,-85.5217,0254,255.8000
1979-02-20 21:59:00 UTC,2443925.415972,27.6633,-85.5217,0254,255.8000
1979-02-20 22:59:00 UTC,2443925.457639,27.6633,-85.5217,0254,255.7000
1979-02-20 23:59:00 UTC,2443925.499306,27.6633,-85.5217,0254,255.9000
1979-02-21 00:59:00 UTC,2443925.540972,27.6633,-85.5217,0254,255.5000
1979-02-21 01:59:00 UTC,2443925.582639,27.6633,-85.5217,0254,253.8000
1979-02-21 02:59:00 UTC,2443925.624306,27.6633,-85.5217,0254,253.4000
1979-02-21 03:59:00 UTC,2443925.665972,27.6633,-85.5217,0254,253.6000
1979-02-21 04:59:00 UTC,2443925.707639,27.6633,-85.5217,0254,253.5000
1979-02-21 05:59:00 UTC,2443925.749306,27.6633,-85.5217,0254,253.5000
1979-02-21 06:59:00 UTC,2443925.790972,27.6633,-85.5217,0254,253.4000
1979-02-21 07:59:00 UTC,2443925.832639,27.6633,-85.5217,0254,254.1000
1979-02-21 08:59:00 UTC,2443925.874306,27.6633,-85.5217,0254,254.2000
1979-02-21 09:59:00 UTC,2443925.915972,27.6633,-85.5217,0254,253.5000
1979-02-21 10:59:00 UTC,2443925.957639,27.6633,-85.5217,0254,253.5000
1979-02-21 11:59:00 UTC,2443925.999306,27.6633,-85.5217,0254,253.5000
1979-02-21 12:59:00 UTC,2443926.040972,27.6633,-85.5217,0254,253.5000
1979-02-21 13:59:00 UTC,2443926.082639,27.6633,-85.5217,0254,253.6000
1979-02-21 14:59:00 UTC,2443926.124306,27.6633,-85.5217,0254,253.3000
1979-02-21 15:59:00 UTC,2443926.165972,27.6633,-85.5217,0254,254.5000
1979-02-21 16:59:00 UTC,2443926.207639,27.6633,-85.5217,0254,255.0000
1979-02-21 17:59:00 UTC,2443926.249306,27.6633,-85.5217,0254,253.5000
1979-02-21 18:59:00 UTC,2443926.290972,27.6633,-85.5217,0254,253.4000
1979-02-21 19:59:00 UTC,2443926.332639,27.6633,-85.5217,0254,253.6000
1979-02-21 20:59:00 UTC,2443926.374306,27.6633,-85.5217,0254,253.5000
1979-02-21 21:59:00 UTC,2443926.415972,27.6633,-85.5217,0254,253.5000
1979-02-21 22:59:00 UTC,2443926.457639,27.6633,-85.5217,0254,253.5000
1979-02-21 23:59:00 UTC,2443926.499306,27.6633,-85.5217,0254,253.5000
1979-02-22 00:59:00 UTC,2443926.540972,27.6633,-85.5217,0254,253.5000
1979-02-22 01:59:00 UTC,2443926.582639,27.6633,-85.5217,0254,253.5000
1979-02-22 02:59:00 UTC,2443926.624306,27.6633,-85.5217,0254,253.5000
1979-02-22 03:59:00 UTC,2443926.665972,27.6633,-85.5217,0254,253.5000
1979-02-22 04:59:00 UTC,2443926.707639,27.6633,-85.5217,0254,253.5000
1979-02-22 05:59:00 UTC,2443926.749306,27.6633,-85.5217,0254,253.5000
1979-02-22 06:59:00 UTC,2443926.790972,27.6633,-85.5217,0254,253.5000
1979-02-22 07:59:00 UTC,2443926.832639,27.6633,-85.5217,0254,253.5000
1979-02-22 08:59:00 UTC,2443926.874306,27.6633,-85.5217,0254,253.5000
1979-02-22 09:59:00 UTC,2443926.915972,27.6633,-85.5217,0254,253.5000
1979-02-22 10:59:00 UTC,2443926.957639,27.6633,-85.5217,0254,253.5000
1979-02-22 11:59:00 UTC,2443926.999306,27.6633,-85.5217,0254,253.5000
1979-02-22 12:59:00 UTC,2443927.040972,27.6633,-85.5217,0254,253.5000
1979-02-22 13:59:00 UTC,2443927.082639,27.6633,-85.5217,0254,253.5000
1979-02-22 14:59:00 UTC,2443927.124306,27.6633,-85.5217,0254,253.5000
1979-02-22 15:59:00 UTC,2443927.165972,27.6633,-85.5217,0254,253.5000
1979-02-22 16:59:00 UTC,2443927.207639,27.6633,-85.5217,0254,253.5000
1979-02-22 17:59:00 UTC,2443927.249306,27.6633,-85.5217,0254,253.5000
1979-02-22 18:59:00 UTC,2443927.290972,27.6633,-85.5217,0254,253.5000
1979-02-22 19:59:00 UTC,2443927.332639,27.6633,-85.5217,0254,253.5000
1979-02-22 20:59:00 UTC,2443927.374306,27.6633,-85.5217,0254,253.5000
1979-02-22 21:59:00 UTC,2443927.415972,27.6633,-85.5217,0254,253.5000
1979-02-22 22:59:00 UTC,2443927.457639,27.6633,-85.5217,0254,253.5000
1979-02-22 23:59:00 UTC,2443927.499306,27.6633,-85.5217,0254,253.5000
1979-02-23 00:59:00 UTC,2443927.540972,27.6633,-85.5217,0254,253.5000
1979-02-23 01:59:00 UTC,2443927.582639,27.6633,-85.5217,0254,253.5000
1979-02-23 02:59:00 UTC,2443927.624306,27.6633,-85.5217,0254,253.5000
1979-02-23 03:59:00 UTC,2443927.665972,27.6633,-85.5217,0254,253.5000
1979-02-23 04:59:00 UTC,2443927.707639,27.6633,-85.5217,0254,253.5000
1979-02-23 05:59:00 UTC,2443927.749306,27.6633,-85.5217,0254,253.5000
1979-02-23 06:59:00 UTC,2443927.790972,27.6633,-85.5217,0254,253.5000
1979-02-23 07:59:00 UTC,2443927.832639,27.6633,-85.5217,0254,253.5000
1979-02-23 08:59:00 UTC,2443927.874306,27.6633,-85.5217,0254,253.5000
1979-02-23 09:59:00 UTC,2443927.915972,27.6633,-85.5217,0254,253.5000
1979-02-23 10:59:00 UTC,2443927.957639,27.6633,-85.5217,0254,253.5000
1979-02-23 11:59:00 UTC,2443927.999306,27.6633,-85.5217,0254,253.5000
1979-02-23 12:59:00 UTC,2443928.040972,27.6633,-85.5217,0254,253.5000
1979-02-23 13:59:00 UTC,2443928.082639,27.6633,-85.5217,0254,253.5000
1979-02-23 14:59:00 UTC,2443928.124306,27.6633,-85.5217,0254,253.5000
1979-02-23 15:59:00 UTC,2443928.165972,27.6633,-85.5217,0254,253.5000
1979-02-23 16:59:00 UTC,2443928.207639,27.6633,-85.5217,0254,253.5000
1979-02-23 17:59:00 UTC,2443928.249306,27.6633,-85.5217,0254,253.5000
1979-02-23 18:59:00 UTC,2443928.290972,27.6633,-85.5217,0254,253.5000
1979-02-23 19:59:00 UTC,2443928.332639,27.6633,-85.5217,0254,253.5000
1979-02-23 20:59:00 UTC,2443928.374306,27.6633,-85.5217,0254,253.5000
1979-02-23 21:59:00 UTC,2443928.415972,27.6633,-85.5217,0254,253.5000
1979-02-23 22:59:00 UTC,2443928.457639,27.6633,-85.5217,0254,253.5000
1979-02-23 23:59:00 UTC,2443928.499306,27.6633,-85.5217,0254,253.5000
1979-02-24 00:59:00 UTC,2443928.540972,27.6633,-85.5217,0254,253.5000
1979-02-24 01:59:00 UTC,2443928.582639,27.6633,-85.5217,0254,253.5000
1979-02-24 02:59:00 UTC,2443928.624306,27.6633,-85.5217,0254,253.5000
1979-02-24 03:59:00 UTC,2443928.665972,27.6633,-85.5217,0254,253.5000
1979-02-24 04:59:00 UTC,2443928.707639,27.6633,-85.5217,0254,253.5000
1979-02-24 05:59:00 UTC,2443928.749306,27.6633,-85.5217,0254,253.5000
1979-02-24 06:59:00 UTC,2443928.790972,27.6633,-85.5217,0254,253.5000
1979-02-24 07:59:00 UTC,2443928.832639,27.6633,-85.5217,0254,253.5000
1979-02-24 08:59:00 UTC,2443928.874306,27.6633,-85.5217,0254,253.5000
1979-02-24 09:59:00 UTC,2443928.915972,27.6633,-85.5217,0254,253.5000
1979-02-24 10:59:00 UTC,2443928.957639,27.6633,-85.5217,0254,253.5000
1979-02-24 11:59:00 UTC,2443928.999306,27.6633,-85.5217,0254,253.5000
1979-02-24 12:59:00 UTC,2443929.040972,27.6633,-85.5217,0254,253.5000
1979-02-24 13:59:00 UTC,2443929.082639,27.6633,-85.5217,0254,253.5000
1979-02-24 14:59:00 UTC,2443929.124306,27.6633,-85.5217,0254,253.5000
1979-02-24 15:59:00 UTC,2443929.165972,27.6633,-85.5217,0254,253.5000
1979-02-24 16:59:00 UTC,2443929.207639,27.6633,-85.5217,0254,253.5000
1979-02-24 17:59:00 UTC,2443929.249306,27.6633,-85.5217,0254,253.5000
1979-02-24 18:59:00 UTC,2443929.290972,27.6633,-85.5217,0254,253.5000
1979-02-24 19:59:00 UTC,2443929.332639,27.6633,-85.5217,0254,253.5000
1979-02-24 20:59:00 UTC,2443929.374306,27.6633,-85.5217,0254,253.5000
1979-02-24 21:59:00 UTC,2443929.415972,27.6633,-85.5217,0254,253.5000
1979-02-24 22:59:00 UTC,2443929.457639,27.6633,-85.5217,0254,253.5000
1979-02-24 23:59:00 UTC,2443929.499306,27.6633,-85.5217,0254,253.5000
1979-02-25 00:59:00 UTC,2443929.540972,27.6633,-85.5217,0254,253.5000
1979-02-25 01:59:00 UTC,2443929.582639,27.6633,-85.5217,0254,253.5000
1979-02-25 02:59:00 UTC,2443929.624306,27.6633,-85.5217,0254,253.5000
1979-02-25 03:59:00 UTC,2443929.665972,27.6633,-85.5217,0254,253.5000
1979-02-25 04:59:00 UTC,2443929.707639,27.6633,-85.5217,0254,253.5000
1979-02-25 05:59:00 UTC,2443929.749306,27.6633,-85.5217,0254,253.5000
1979-02-25 06:59:00 UTC,2443929.790972,27.6633,-85.5217,0254,253.5000
1979-02-25 07:59:00 UTC,2443929.832639,27.6633,-85.5217,0254,253.5000
1979-02-25 08:59:00 UTC,2443929.874306,27.6633,-85.5217,0254,253.5000
1979-02-25 09:59:00 UTC,2443929.915972,27.6633,-85.5217,0254,253.5000
1979-02-25 10:59:00 UTC,2443929.957639,27.6633,-85.5217,0254,253.5000
1979-02-25 11:59:00 UTC,2443929.999306,27.6633,-85.5217,0254,253.5000
1979-02-25 12:59:00 UTC,2443930.040972,27.6633,-85.5217,0254,253.5000
1979-02-25 13:59:00 UTC,2443930.082639,27.6633,-85.5217,0254,253.5000
1979-02-25 14:59:00 UTC,2443930.124306,27.6633,-85.5217,0254,253.5000
1979-02-25 15:59:00 UTC,2443930.165972,27.6633,-85.5217,0254,253.5000
1979-02-25 16:59:00 UTC,2443930.207639,27.6633,-85.5217,0254,253.5000
1979-02-25 17:59:00 UTC,2443930.249306,27.6633,-85.5217,0254,253.5000
1979-02-25 18:59:00 UTC,2443930.290972,27.6633,-85.5217,0254,253.5000
1979-02-25 19:59:00 UTC,2443930.332639,27.6633,-85.5217,0254,253.5000
1979-02-25 20:59:00 UTC,2443930.374306,27.6633,-85.5217,0254,253.5000
1979-02-25 21:59:00 UTC,2443930.415972,27.6633,-85.5217,0254,253.5000
1979-02-25 22:59:00 UTC,2443930.457639,27.6633,-85.5217,0254,253.5000
1979-02-25 23:59:00 UTC,2443930.499306,27.6633,-85.5217,0254,253.5000
1979-02-26 00:59:00 UTC,2443930.540972,27.6633,-85.5217,0254,253.5000
1979-02-26 01:59:00 UTC,2443930.582639,27.6633,-85.5217,0254,253.5000
1979-02-26 02:59:00 UTC,2443930.624306,27.6633,-85.5217,0254,253.5000
1979-02-26 03:59:00 UTC,2443930.665972,27.6633,-85.5217,0254,253.5000
1979-02-26 04:59:00 UTC,2443930.707639,27.6633,-85.5217,0254,253.5000
1979-02-26 05:59:00 UTC,2443930.749306,27.6633,-85.5217,0254,253.5000
1979-02-26 06:59:00 UTC,2443930.790972,27.6633,-85.5217,0254,253.5000
1979-02-26 07:59:00 UTC,2443930.832639,27.6633,-85.5217,0254,253.5000
1979-02-26 08:59:00 UTC,2443930.874306,27.6633,-85.5217,0254,253.5000
1979-02-26 09:59:00 UTC,2443930.915972,27.6633,-85.5217,0254,253.5000
1979-02-26 10:59:00 UTC,2443930.957639,27.6633,-85.5217,0254,253.5000
1979-02-26 11:59:00 UTC,2443930.999306,27.6633,-85.5217,0254,253.5000
1979-02-26 12:59:00 UTC,2443931.040972,27.6633,-85.5217,0254,253.5000
1979-02-26 13:59:00 UTC,2443931.082639,27.6633,-85.5217,0254,253.5000
1979-02-26 14:59:00 UTC,2443931.124306,27.6633,-85.5217,0254,253.6000
1979-02-26 15:59:00 UTC,2443931.165972,27.6633,-85.5217,0254,253.6000
1979-02-26 16:59:00 UTC,2443931.207639,27.6633,-85.5217,0254,252.1000
1979-02-26 17:59:00 UTC,2443931.249306,27.6633,-85.5217,0254,251.1000
1979-02-26 18:59:00 UTC,2443931.290972,27.6633,-85.5217,0254,251.3000
1979-02-26 19:59:00 UTC,2443931.332639,27.6633,-85.5217,0254,251.3000
1979-02-26 20:59:00 UTC,2443931.374306,27.6633,-85.5217,0254,251.3000
1979-02-26 21:59:00 UTC,2443931.415972,27.6633,-85.5217,0254,251.3000
1979-02-26 22:59:00 UTC,2443931.457639,27.6633,-85.5217,0254,251.3000
1979-02-26 23:59:00 UTC,2443931.499306,27.6633,-85.5217,0254,251.3000
1979-02-27 00:59:00 UTC,2443931.540972,27.6633,-85.5217,0254,251.3000
1979-02-27 01:59:00 UTC,2443931.582639,27.6633,-85.5217,0254,251.3000
1979-02-27 02:59:00 UTC,2443931.624306,27.6633,-85.5217,0254,251.3000
1979-02-27 03:59:00 UTC,2443931.665972,27.6633,-85.5217,0254,251.3000
1979-02-27 04:59:00 UTC,2443931.707639,27.6633,-85.5217,0254,251.3000
1979-02-27 05:59:00 UTC,2443931.749306,27.6633,-85.5217,0254,251.3000
1979-02-27 06:59:00 UTC,2443931.790972,27.6633,-85.5217,0254,251.3000
1979-02-27 07:59:00 UTC,2443931.832639,27.6633,-85.5217,0254,251.3000
1979-02-27 08:59:00 UTC,2443931.874306,27.6633,-85.5217,0254,251.3000
1979-02-27 09:59:00 UTC,2443931.915972,27.6633,-85.5217,0254,251.3000
1979-02-27 10:59:00 UTC,2443931.957639,27.6633,-85.5217,0254,251.3000
1979-02-27 11:59:00 UTC,2443931.999306,27.6633,-85.5217,0254,251.3000
1979-02-27 12:59:00 UTC,2443932.040972,27.6633,-85.5217,0254,251.3000
1979-02-27 13:59:00 UTC,2443932.082639,27.6633,-85.5217,0254,251.3000
1979-02-27 14:59:00 UTC,2443932.124306,27.6633,-85.5217,0254,251.3000
1979-02-27 15:59:00 UTC,2443932.165972,27.6633,-85.5217,0254,251.3000
1979-02-27 16:59:00 UTC,2443932.207639,27.6633,-85.5217,0254,251.3000
1979-02-27 17:59:00 UTC,2443932.249306,27.6633,-85.5217,0254,251.3000
1979-02-27 18:59:00 UTC,2443932.290972,27.6633,-85.5217,0254,251.3000
1979-02-27 19:59:00 UTC,2443932.332639,27.6633,-85.5217,0254,251.3000
1979-02-27 20:59:00 UTC,2443932.374306,27.6633,-85.5217,0254,251.3000
1979-02-27 21:59:00 UTC,2443932.415972,27.6633,-85.5217,0254,251.3000
1979-02-27 22:59:00 UTC,2443932.457639,27.6633,-85.5217,0254,251.3000
1979-02-27 23:59:00 UTC,2443932.499306,27.6633,-85.5217,0254,251.3000
1979-02-28 00:59:00 UTC,2443932.540972,27.6633,-85.5217,0254,251.3000
1979-02-28 01:59:00 UTC,2443932.582639,27.6633,-85.5217,0254,251.3000
1979-02-28 02:59:00 UTC,2443932.624306,27.6633,-85.5217,0254,251.3000